Overview Statistics Trail Chart Weather Telemetry Raw packets
 

This is the latest recevied weather packets stored in our database for station/object EA4HRG-10. If no packets are shown the sender has not sent any weather packets the latest 10 day(s).

<< 15 16 17 18 19 20 21 >>
Time Temp. Humidity Pressure Rain* Wind** Luminosity Snow
1788254738 28.89° C 43% 1016.3 hPa - - - -
1788253838 30° C 40% 1016.1 hPa - - - -
1788252938 30° C 41% 1016 hPa - - - -
1788252038 28.33° C 45% 1016.7 hPa - - - -
1788251138 22.78° C 60% 1018.7 hPa - - - -
1788250238 21.67° C 64% 1018.9 hPa - - - -
1788249338 21.11° C 66% 1019.2 hPa - - - -
1788248438 20° C 73% 1019.7 hPa - - - -
1788247538 18.89° C 76% 1020.1 hPa - - - -
1788246638 17.78° C 79% 1020.5 hPa - - - -
1788245738 17.78° C 80% 1020.8 hPa - - - -
1788244838 16.67° C 83% 1020.8 hPa - - - -
1788243938 16.11° C 86% 1021.1 hPa - - - -
1788243038 15.56° C 86% 1021.2 hPa - - - -
1788242138 15.56° C 86% 1021.3 hPa - - - -
1788241238 15.56° C 85% 1021.2 hPa - - - -
1788240385 15.56° C 85% 1020.9 hPa - - - -
1788240338 15.56° C 85% 1020.9 hPa - - - -
1788239438 16.11° C 86% 1020.7 hPa - - - -
1788238538 15.56° C 85% 1020.9 hPa - - - -
1788237638 15.56° C 83% 1020.8 hPa - - - -
1788236738 - 100% - - - - -
1788235890 - 100% - - - - -
1788235838 - 100% - - - - -
1788234938 - 100% - - - - -

* Rain since midnight (hover to see other rain measurements)
** Current wind speed in m/s (hover to see current wind gust speed)